Location: Ajamagba
(8.3500°N, 4.3000°E)
Time: 12:24:11
(UTC+00:00)

Daily predictions for brighter satellites

Satellite Brightness Start Highest point End
(mag) Time Altitude Azimuth Time Altitude Azimuth Time Altitude Azimuth
H-2A R/B 3.6 17:25:36 10° WNW 17:29:06 68° SSW 17:48:49 10° ESE
NOAA 11 4.4 17:33:25 10° SSE 17:38:38 50° ENE 17:43:51 10° N
Cosmos 1680 Rocket 3.6 17:33:56 10° SSW 17:39:09 88° WNW 17:44:25 10° NNE
Lacrosse 4 Rocket 1.6 17:35:24 10° SSW 17:39:23 72° WNW 17:43:24 10° NNE
SAR-Lupe-4 3.8 17:35:57 10° N 17:39:30 75° WNW 17:43:04 10° SSW
CZ-4B R/B 3.2 17:34:30 10° SSE 17:39:55 89° ENE 17:45:14 10° NNW
ARIANE 5 R/B 3.3 17:36:06 10° W 17:40:30 65° S 17:44:09 10° E
SWIFT 3.5 17:38:07 10° WNW 17:41:51 31° NNW 17:45:35 10° NE
USA 81 4.3 17:37:02 10° N 17:42:18 80° W 17:47:35 10° S
Cosmos 2285 Rocket 4.1 17:38:59 10° N 17:45:12 59° ENE 17:51:22 10° SSE
NOAA 12 4.5 17:43:24 10° S 17:48:42 74° WSW 17:54:00 10° NNW
Okean O Rocket 2.1 17:48:07 10° S 17:52:25 65° WSW 17:56:43 10° NNW
PSLV R/B 4.1 17:48:26 10° N 17:52:28 76° W 17:56:32 10° SSW
Cosmos 1933 Rocket 3.9 17:49:11 10° NNE 17:53:24 44° E 17:57:36 10° SSE
Okean-O 4.1 17:51:29 10° ESE 17:54:10 16° ENE 17:56:51 10° NE
Cosmos 1602 3.7 17:51:50 10° N 17:55:40 89° E 17:59:30 10° S
CENTAUR R/B 3.6 17:52:42 10° SW 17:57:24 34° WNW 18:02:34 10° N
Cosmos 44 3.6 17:52:46 10° N 17:58:05 57° ENE 18:03:17 10° SE
Intelsat 5-3 Rocket 3.6 17:53:28 10° W 17:58:28 31° NNW 18:01:06 10° NE
CREW DRAGON DEMO-1 DEB 4.3 17:56:46 10° N 17:58:53 18° NE 18:00:27 13° E
GPS 2-15 Rocket1 3.4 17:55:37 10° WNW 18:00:29 57° NNE 18:05:06 11° E
GPS 2-14 Rocket1 4.0 18:00:21 10° WNW 18:03:31 25° NNW 18:06:14 12° NE
ATLAS CENTAUR R/B 4.4 18:03:19 10° N 18:08:25 15° NNE 18:10:13 14° NE
Cosmos 1437 Rocket 2.8 18:04:34 10° S 18:08:38 87° E 18:12:37 10° N
Cosmos 2369 Rocket 2.9 18:04:32 10° NNE 18:09:20 29° ENE 18:14:08 10° SE
Cosmos 1943 Rocket 2.2 18:05:04 10° N 18:10:33 59° ENE 18:16:06 10° SSE
Meteor 1-27 Rocket 3.6 18:05:08 10° S 18:10:37 72° E 18:16:06 10° N
Meteor 1-14 Rocket 4.3 18:06:08 10° N 18:12:07 84° E 18:18:03 10° S
Cosmos 2344 4.2 18:04:01 10° S 18:12:46 42° ESE 18:18:36 16° NE
ARIANE 5 R/B 3.8 18:12:31 10° SSW 18:14:04 14° SSE 18:16:29 10° SE
Meteosat 1 Rocket2 3.6 18:09:24 10° WNW 18:16:02 78° SSW 18:20:27 10° SE
CZ-2C R/B 3.1 18:20:48 18° NE 18:24:04 36° E 18:28:51 10° SSE
Feng Yun 1-1 Rocket 4.5 18:21:32 10° S 18:27:25 79° WSW 18:33:10 10° NNW
Cosmos 1869 Rocket 3.9 18:23:59 10° NNE 18:28:09 41° E 18:32:18 10° SSE
ATLAS CENTAUR R/B 1.5 18:27:22 10° S 18:31:26 50° ESE 18:32:39 36° ENE
YAOGAN 1 2.7 18:31:08 10° SSE 18:35:17 48° ENE 18:38:54 13° N
Palapa 6 Rocket 4.0 18:35:45 10° WNW 18:41:43 79° SSW 18:47:12 18° ESE
Ariane H10 3.7 18:43:00 10° WSW 18:46:09 71° S 18:50:14 28° E
Cosmos 1666 2.6 18:47:13 61° E 18:47:13 61° E 18:50:51 10° SSE
NOAA 15 4.5 18:42:31 10° SSE 18:47:47 71° ENE 18:53:02 10° N
Spelda 2.4 18:44:06 10° W 18:48:44 50° S 18:49:06 47° SSE
CZ-2C R/B 3.0 18:45:33 10° S 18:50:54 84° WSW 18:55:58 10° NNW
Cosmos 1242 Rocket 4.0 18:52:14 10° S 18:53:54 26° SSE 18:53:54 26° SSE
Cosmos 1535 Rocket 4.4 18:50:18 10° N 18:56:19 62° E 19:02:25 10° SSE
Helios 1A Rocket 3.2 18:54:02 10° S 18:58:02 65° WSW 19:02:00 10° NNW
GPS 2-12 Rocket1 4.4 18:53:58 10° WNW 18:58:04 28° NNW 18:58:14 28° N
CSL-04 Debris 4.2 18:53:26 10° SSE 18:58:48 57° ENE 18:59:56 48° NNE
USA 281 3.3 18:56:19 10° SE 19:02:35 49° ENE 19:08:51 10° N
H-2A R/B 2.0 18:59:45 10° SSE 19:05:09 82° ENE 19:08:38 22° N
CZ-4 R/B 2.5 19:02:28 10° S 19:06:06 40° W 19:09:47 10° NNW
OAO 3 Rocket 3.0 19:01:15 10° SW 19:06:08 89° SE 19:06:10 88° E
FUSE 3.8 19:04:20 10° WNW 19:09:43 80° NNE 19:09:46 80° NE
Sylda 4400 3.8 19:04:39 10° W 19:10:03 60° SW 19:10:03 60° SW
Meteor 2-1 4.5 19:11:02 73° ENE 19:11:15 74° E 19:16:49 10° S
CSL-04 Rocket 3.5 19:08:09 10° SSE 19:13:22 76° ESE 19:13:22 76° ESE
Cosmos 2263 4.1 19:08:06 10° NNW 19:13:42 84° WSW 19:19:19 10° SSE
Mugunghwa Rocket 4.0 19:07:57 10° WNW 19:14:21 80° SSW 19:16:19 49° SE
Cosmos 1934 Rocket 4.1 19:12:04 10° N 19:18:18 72° W 19:24:28 10° S
EPKM 4.5 18:32:03 10° WSW 19:19:20 89° NNW 19:22:01 53° ENE
ATLAS 3B R/B 3.7 19:15:10 10° SW 19:21:16 39° WNW 19:24:48 23° NNW
Cosmos 1833 Rocket 3.7 19:18:11 10° S 19:21:29 33° SSE 19:21:29 33° SSE
ARGOS 3.9 19:31:04 10° S 19:34:56 46° SSW 19:34:56 46° SSW
H-10 deb 3.9 19:37:31 10° W 19:41:30 31° WSW 19:41:30 31° WSW
COSMOS 2406 4.1 19:41:50 10° SSW 19:45:45 44° SW 19:45:45 44° SW
Ariane H10 4.1 20:06:09 10° W 20:43:18 10° E 20:08:25 41° W
Ariane H10 4.2 20:06:08 10° W 20:43:18 10° E 20:08:24 41° W
Ariane H10 4.1 20:06:08 10° W 20:43:18 10° E 20:08:25 41° W
Ariane H10 4.2 20:06:08 10° W 20:43:17 10° E 20:08:23 40° W
Centaur AC-72 4.2 20:26:36 10° WNW 20:32:31 37° WNW 20:32:31 37° WNW
